Wind_Speed
80 76 70 71 69 72 70 70 76 72 76 83 79 73 68 68 70 63 57 52 53 51 47 38 43 38 36 34 31 28 28 31 26 21 18 23 20 32 36 34 41 48 43 47
77 74 75 75 72 67 66 67 71 76 78 82 80 71 67 66 65 62 59 55 55 52 48 40 42 40 37 33 31 27 24 29 23 23 17 20 25 20 38 42 42 47 47 52
75 76 79 77 74 72 72 71 71 71 75 78 75 74 70 65 67 65 61 58 55 55 48 42 44 41 39 32 31 27 22 24 23 23 18 10 26 30 25 23 37 53 45 54
83 86 81 77 74 75 73 70 73 74 72 73 73 67 65 64 67 68 64 59 53 51 46 42 46 44 42 36 34 30 21 19 21 21 19 10 7 24 36 31 28 29 47 50
82 83 79 77 77 74 73 77 79 77 75 73 72 76 57 72 67 68 62 53 52 51 46 47 51 45 44 38 37 33 23 18 21 20 19 11 8 7 20 33 35 31 35 42
79 80 79 77 77 75 75 73 76 77 79 75 77 83 58 70 69 64 57 53 56 49 50 53 56 43 46 40 40 35 29 20 19 19 18 13 10 10 4 11 23 32 36 39
77 76 82 80 80 78 75 77 77 76 74 72 78 69 61 62 64 67 56 55 53 52 52 53 54 47 45 42 43 39 30 25 21 20 17 13 12 11 12 10 7 8 21 38
65 68 73 81 83 82 83 81 76 74 72 70 66 60 62 62 59 58 51 59 51 50 50 54 56 49 44 43 45 41 36 29 23 23 20 18 16 15 17 14 13 12 10 10
60 61 69 74 75 76 74 70 69 65 62 59 58 59 52 42 39 44 50 53 50 48 50 54 55 49 46 45 44 41 37 32 26 26 24 22 21 20 19 19 19 19 20 20
56 58 58 61 63 63 64 62 59 55 56 56 49 43 36 34 38 43 50 47 50 52 50 54 54 51 49 46 44 41 39 35 32 28 25 25 24 23 22 22 22 21 23 22
57 59 59 59 61 59 61 57 50 50 52 42 39 32 33 34 43 47 49 51 52 54 49 51 57 54 50 46 45 43 42 40 36 32 30 29 27 27 27 26 26 24 23 24
58 58 57 60 59 61 58 51 44 45 41 36 35 34 43 48 47 47 52 55 53 53 49 44 49 57 56 50 48 45 43 42 40 38 35 34 36 33 29 26 28 28 28 28
56 58 59 58 57 58 56 51 41 41 34 35 35 47 50 52 49 51 51 53 52 47 44 45 41 48 57 52 47 44 45 43 40 39 39 36 38 39 34 33 32 33 31 32
61 61 60 59 58 58 56 51 37 37 35 39 45 52 58 57 54 53 51 48 52 48 42 39 42 38 46 52 46 44 45 45 43 40 41 42 41 40 40 40 39 39 37 38
63 61 59 60 56 53 47 48 36 38 38 45 54 58 57 57 56 54 53 42 52 49 45 42 41 43 44 46 53 47 48 47 45 46 49 51 50 49 47 45 43 41 40 41
62 60 59 59 58 50 41 48 37 39 42 56 61 60 55 58 46 44 49 47 44 46 43 42 47 49 49 52 51 50 50 48 47 48 52 52 51 49 49 50 50 51 49 48
60 60 58 57 55 47 43 52 40 44 54 65 63 60 58 49 50 45 46 43 44 43 46 49 51 51 56 51 54 53 54 55 55 54 54 54 55 54 53 54 54 54 54 52
52 53 52 50 47 44 47 54 44 49 54 69 66 65 64 57 51 47 47 45 52 50 49 50 49 55 54 54 55 54 55 55 55 56 59 59 58 57 57 56 57 58 57 59
46 45 46 45 45 46 53 55 48 56 54 70 66 70 71 67 66 57 57 53 57 57 57 56 63 54 58 59 55 49 50 48 52 53 55 57 58 58 58 59 61 62 63 64
43 41 38 39 43 48 57 58 51 56 56 76 72 71 72 72 73 70 61 59 53 61 66 66 63 63 65 63 61 54 54 52 55 55 56 57 58 58 59 60 61 61 62 65
41 41 41 42 41 48 59 60 54 60 61 64 77 73 72 73 77 78 70 73 68 66 72 73 72 70 70 62 62 62 62 64 62 62 67 68 68 68 71 71 71 72 71 70
40 40 44 42 42 51 62 61 58 58 64 65 77 77 76 75 75 80 77 74 71 74 71 70 69 79 78 75 74 69 66 68 70 69 69 69 69 69 70 69 70 70 73 74
42 45 46 46 49 55 61 60 63 61 65 72 73 80 82 76 81 81 81 81 78 79 78 75 78 79 82 82 80 77 73 71 73 75 76 76 78 77 78 78 75 77 75 76
46 49 47 53 53 54 55 58 63 68 66 71 79 75 80 85 79 81 78 78 81 79 79 83 82 82 82 81 79 77 80 80 81 80 80 80 81 80 78 80 79 79 80 81
49 50 51 49 52 55 55 58 60 68 71 69 73 79 75 76 88 90 86 83 82 81 84 88 88 87 86 85 84 84 85 85 84 85 83 82 82 84 84 86 87 88 90 93
51 50 49 48 50 53 59 60 62 65 76 79 77 79 81 86 86 91 92 91 90 86 85 88 89 87 87 89 91 90 89 88 89 90 91 92 92 92 92 95 95 90 87 88
Wind_Direction
256 258 262 258 257 259 261 259 258 263 263 264 263 263 268 273 276 277 277 280 285 283 276 258 251 242 244 257 270 283 299 309 326 330 315 239 222 210 209 201 211 220 220 231
254 259 255 258 265 267 258 258 258 257 260 264 264 264 269 273 276 274 275 279 283 279 271 250 248 237 238 250 263 276 292 302 317 325 320 258 224 218 221 217 212 219 228 232
249 253 257 262 262 262 260 260 264 262 261 263 265 266 267 267 271 274 275 276 275 272 254 244 242 232 234 239 255 264 284 294 307 326 319 315 238 228 224 233 229 222 225 233
252 254 257 258 256 257 261 257 260 264 261 263 269 270 269 264 267 270 271 272 262 255 239 238 238 225 229 234 245 256 271 277 293 316 324 338 311 238 237 241 248 244 239 235
249 253 252 255 254 257 254 257 259 259 261 263 270 272 265 268 269 270 265 258 254 239 230 230 232 220 224 228 240 247 258 262 277 299 318 339 358 286 243 241 245 252 255 248
247 246 249 250 253 254 257 258 258 260 262 265 267 270 271 267 267 262 255 250 247 223 222 223 228 216 222 224 236 244 250 252 264 286 302 315 345 359 338 245 242 243 248 250
246 245 245 249 250 252 254 259 260 262 266 267 265 273 272 262 261 257 252 239 233 214 217 220 226 213 220 223 232 240 239 246 252 267 281 292 308 330 339 354 343 284 256 249
246 244 245 246 249 251 255 259 262 263 264 264 271 271 266 263 255 252 236 230 216 213 212 218 224 216 215 223 229 235 236 246 244 256 261 269 281 294 306 320 331 330 336 334
245 243 244 246 248 251 253 256 260 261 265 268 267 265 261 254 241 231 219 211 205 204 208 217 223 219 215 222 228 234 237 237 240 246 255 261 270 283 292 301 308 313 315 316
244 243 243 244 246 249 251 255 259 264 269 268 265 254 245 226 216 210 205 203 197 202 206 216 223 220 217 222 229 232 239 235 238 244 249 254 261 271 279 288 294 300 303 308
240 241 243 244 246 249 252 255 260 268 267 260 247 233 216 212 208 206 205 199 198 201 208 215 220 225 224 224 230 234 240 244 241 243 244 250 252 256 265 273 280 287 296 297
237 240 240 242 246 250 253 259 262 264 256 242 227 209 199 198 207 204 205 204 200 201 209 213 220 223 227 225 227 232 239 242 245 244 245 248 250 253 256 263 271 276 282 286
234 238 242 244 247 252 260 263 264 253 239 228 206 191 194 191 196 196 202 202 198 205 209 210 220 224 227 229 232 235 237 240 242 248 252 253 255 255 257 261 268 275 277 281
236 237 243 246 247 251 256 259 252 240 222 213 190 189 184 191 194 196 201 202 197 205 210 213 218 223 231 231 233 237 238 240 244 246 252 256 256 258 261 262 263 269 272 274
239 241 243 249 250 251 253 259 238 228 213 198 186 182 187 192 197 201 201 209 203 207 210 213 214 217 220 223 228 230 235 239 239 241 243 245 247 254 258 261 263 266 266 266
241 244 249 252 252 251 248 247 225 220 202 186 182 183 192 191 192 199 203 213 211 212 213 219 224 225 225 226 224 227 231 235 235 239 242 246 253 257 258 264 268 271 269 267
241 245 247 248 249 245 230 232 212 214 191 186 186 189 186 199 200 201 205 210 214 218 216 218 221 230 234 232 232 232 234 236 238 239 243 246 251 257 263 266 268 269 272 269
240 243 243 240 237 228 223 226 204 207 192 191 196 195 192 198 205 206 207 211 218 215 221 223 229 232 235 236 238 237 239 241 242 243 244 248 253 258 261 262 263 263 264 266
235 238 240 238 232 222 220 221 200 203 196 194 197 201 200 199 203 208 209 211 217 223 231 226 228 237 242 233 234 233 242 247 250 250 252 254 256 258 260 262 263 264 266 267
228 231 232 231 224 214 216 214 205 200 197 194 198 204 206 206 208 203 207 213 222 221 221 233 236 229 239 236 230 234 241 241 246 249 254 257 260 261 261 261 262 264 265 268
224 225 227 225 216 209 217 213 211 200 202 201 201 203 208 210 214 216 212 214 218 221 218 220 232 236 247 233 230 242 243 242 244 247 251 254 257 260 261 262 265 267 269 269
224 222 224 223 215 212 219 215 214 209 207 204 204 207 209 214 216 220 219 221 227 226 229 230 229 229 239 246 256 256 249 243 244 248 250 256 258 258 260 262 264 268 269 267
229 229 224 220 219 217 221 219 215 218 213 209 209 211 213 219 221 222 223 225 226 232 233 233 234 235 242 249 253 257 259 260 259 257 256 256 256 258 257 260 266 269 269 267
235 232 230 224 222 223 222 222 218 220 221 214 213 215 217 221 222 226 228 232 230 233 234 234 238 239 247 249 253 257 259 260 260 261 262 262 261 262 263 267 269 266 264 267
236 235 233 231 226 225 226 225 223 221 223 225 219 219 218 222 224 224 225 227 232 236 235 236 241 246 250 251 255 259 261 263 265 265 266 265 266 268 269 270 272 271 273 275
239 240 238 234 230 227 227 227 225 224 221 224 226 224 223 222 223 226 229 230 232 235 237 238 241 245 249 252 256 259 262 264 265 267 267 268 269 270 270 272 275 277 278 275
Height
10533 10548 10558 10552 10554 10562 10567 10571 10574 10574 10573 10574 10591 10606 10608 10603 10607 10611 10613 10614 10613 10612 10613 10614 10615 10619 10624 10626 10627 10625 10621 10618 10617 10613 10610 10610 10615 10620 10626 10631 10636 10641 10644 10646
10520 10532 10527 10533 10541 10549 10552 10553 10555 10558 10556 10561 10572 10593 10594 10595 10593 10596 10598 10602 10600 10598 10600 10602 10604 10611 10615 10619 10621 10621 10618 10614 10614 10612 10608 10605 10609 10614 10620 10625 10631 10636 10639 10643
10502 10507 10511 10520 10524 10530 10534 10537 10537 10541 10543 10545 10557 10577 10577 10581 10581 10580 10584 10586 10586 10585 10587 10591 10593 10602 10606 10612 10615 10616 10614 10612 10610 10609 10606 10603 10602 10608 10613 10618 10623 10629 10633 10637
10489 10488 10497 10504 10506 10510 10518 10519 10520 10523 10528 10534 10539 10558 10563 10562 10563 10566 10566 10570 10570 10570 10576 10579 10582 10591 10597 10604 10608 10610 10610 10609 10607 10607 10604 10601 10599 10601 10606 10611 10615 10620 10624 10629
10471 10468 10480 10488 10486 10496 10500 10502 10505 10508 10513 10522 10525 10520 10558 10536 10546 10543 10545 10549 10551 10556 10564 10568 10568 10582 10589 10595 10600 10603 10604 10604 10603 10603 10602 10600 10599 10599 10600 10604 10608 10613 10615 10617
10449 10453 10461 10465 10470 10477 10482 10485 10488 10493 10497 10509 10503 10493 10535 10520 10521 10522 10526 10534 10532 10543 10550 10555 10557 10575 10579 10586 10592 10596 10598 10599 10600 10599 10599 10598 10596 10597 10598 10600 10602 10605 10608 10610
10428 10440 10444 10448 10451 10459 10465 10469 10474 10479 10481 10490 10481 10482 10501 10500 10498 10498 10511 10516 10519 10529 10539 10545 10551 10562 10568 10577 10583 10588 10591 10593 10594 10596 10596 10595 10594 10593 10594 10595 10596 10598 10599 10601
10413 10420 10427 10429 10436 10441 10448 10453 10458 10465 10464 10465 10465 10472 10470 10471 10479 10482 10493 10499 10513 10524 10533 10537 10540 10553 10559 10568 10574 10578 10583 10586 10588 10590 10591 10591 10591 10591 10591 10592 10592 10593 10593 10593
10396 10403 10408 10413 10422 10426 10432 10437 10443 10446 10445 10448 10453 10451 10452 10459 10464 10468 10476 10488 10505 10516 10524 10528 10534 10544 10551 10557 10563 10569 10574 10578 10581 10583 10585 10585 10586 10586 10587 10588 10588 10589 10589 10589
10380 10386 10394 10401 10406 10412 10417 10423 10428 10429 10430 10431 10435 10437 10442 10447 10451 10458 10470 10485 10497 10507 10515 10521 10527 10534 10542 10548 10555 10561 10565 10570 10572 10576 10579 10579 10579 10580 10581 10581 10582 10583 10583 10583
10365 10373 10381 10387 10390 10400 10402 10408 10415 10415 10415 10418 10422 10428 10433 10441 10448 10457 10466 10479 10488 10498 10505 10512 10519 10526 10534 10543 10548 10553 10557 10562 10565 10569 10571 10572 10573 10574 10575 10575 10575 10576 10577 10577
10355 10362 10369 10372 10381 10384 10389 10394 10400 10402 10404 10406 10412 10421 10424 10432 10443 10454 10464 10475 10482 10490 10497 10506 10513 10519 10524 10532 10539 10546 10550 10552 10556 10559 10561 10564 10565 10565 10567 10568 10567 10568 10569 10569
10344 10350 10354 10361 10369 10373 10377 10380 10386 10389 10393 10396 10405 10415 10419 10426 10437 10448 10458 10467 10476 10484 10493 10500 10505 10511 10517 10525 10532 10538 10541 10543 10546 10550 10553 10554 10556 10556 10558 10560 10561 10561 10561 10561
10330 10338 10342 10348 10356 10361 10364 10367 10375 10379 10383 10388 10398 10407 10416 10423 10432 10442 10452 10461 10471 10477 10486 10494 10498 10504 10511 10519 10525 10528 10529 10533 10537 10540 10541 10543 10544 10546 10548 10551 10552 10552 10552 10551
10316 10324 10331 10334 10342 10349 10356 10357 10364 10369 10376 10382 10391 10402 10409 10418 10426 10434 10446 10454 10464 10471 10478 10485 10490 10494 10499 10504 10510 10512 10517 10521 10524 10527 10528 10529 10532 10533 10536 10538 10540 10540 10540 10540
10306 10312 10318 10323 10328 10336 10345 10346 10355 10361 10368 10378 10388 10398 10403 10411 10418 10428 10436 10444 10454 10463 10471 10477 10481 10484 10488 10493 10497 10502 10506 10510 10514 10516 10516 10519 10521 10522 10524 10526 10525 10526 10528 10529
10294 10300 10305 10311 10316 10325 10333 10331 10344 10352 10361 10372 10383 10392 10401 10407 10413 10420 10428 10436 10445 10452 10458 10465 10467 10472 10476 10481 10487 10491 10495 10498 10502 10505 10506 10508 10510 10511 10512 10512 10512 10513 10512 10514
10284 10287 10291 10297 10304 10314 10317 10320 10336 10345 10355 10368 10376 10384 10393 10399 10406 10412 10418 10425 10432 10438 10444 10449 10454 10458 10462 10469 10476 10480 10483 10487 10490 10492 10495 10498 10499 10499 10499 10500 10500 10499 10499 10499
10272 10278 10283 10288 10295 10304 10305 10313 10326 10335 10346 10359 10367 10375 10381 10388 10394 10398 10404 10411 10417 10425 10429 10436 10439 10444 10448 10455 10462 10467 10471 10474 10476 10478 10480 10482 10483 10484 10484 10484 10485 10485 10484 10484
10264 10269 10275 10277 10283 10291 10292 10302 10315 10329 10339 10348 10356 10364 10374 10379 10382 10387 10395 10401 10407 10410 10417 10421 10426 10431 10435 10442 10450 10455 10458 10461 10463 10465 10465 10466 10467 10467 10468 10470 10470 10469 10469 10467
10255 10260 10263 10266 10275 10284 10282 10291 10304 10317 10325 10335 10344 10352 10358 10364 10372 10376 10383 10388 10390 10396 10404 10409 10416 10420 10423 10427 10433 10438 10442 10444 10446 10448 10449 10450 10451 10452 10452 10452 10452 10452 10452 10450
10245 10249 10251 10258 10267 10271 10265 10281 10296 10307 10314 10323 10332 10339 10345 10352 10359 10364 10372 10378 10382 10386 10394 10398 10401 10406 10409 10410 10413 10418 10423 10426 10427 10429 10431 10433 10434 10434 10434 10434 10434 10433 10433 10433
10233 10234 10240 10249 10251 10253 10257 10272 10285 10292 10302 10311 10319 10326 10333 10338 10343 10350 10357 10364 10368 10372 10376 10383 10389 10392 10395 10396 10400 10401 10403 10406 10408 10410 10412 10414 10415 10415 10415 10416 10416 10416 10414 10412
10219 10222 10229 10230 10239 10246 10254 10262 10272 10277 10286 10297 10305 10312 10320 10326 10331 10336 10342 10347 10351 10355 10361 10367 10371 10375 10377 10378 10380 10383 10385 10386 10389 10389 10391 10393 10394 10394 10395 10395 10395 10395 10394 10394
10206 10210 10216 10227 10231 10236 10243 10249 10257 10267 10274 10281 10290 10298 10305 10309 10313 10317 10321 10328 10335 10340 10345 10350 10353 10355 10357 10359 10361 10363 10364 10365 10366 10368 10369 10370 10370 10370 10371 10371 10371 10369 10367 10367
10193 10199 10205 10212 10218 10224 10229 10235 10242 10249 10256 10262 10268 10274 10281 10288 10294 10298 10305 10313 10318 10323 10327 10330 10333 10336 10339 10341 10342 10343 10344 10345 10346 10347 10347 10347 10346 10344 10345 10345 10343 10339 10338 10336